GFSNGP_prec_cloud_093.txt.gz
Cloud_Cover
100 100 100 100 100 100 100 100 100 100 100 100 100 100 100 100 64 34 30 48 100 100 100 100 100 100 100 100 100 100 100 100 100 100 34 100 100 100 100 100 100 100 100 100
100 100 100 100 100 100 100 100 100 100 100 100 100 77 55 94 69 79 89 92 100 100 100 100 100 100 100 100 100 87 100 100 100 100 88 100 100 100 100 100 100 100 100 100
100 100 100 100 100 100 100 100 100 100 100 7 7 83 100 100 100 100 100 100 100 100 100 100 100 100 100 100 100 100 100 100 100 100 100 100 100 100 100 100 100 100 100 100
100 100 99 100 100 100 100 100 100 100 73 43 94 100 100 100 100 100 100 100 100 100 100 100 100 100 100 100 100 100 100 100 100 100 100 100 100 100 100 100 100 100 100 100
100 100 40 98 99 100 100 100 94 64 48 64 100 100 100 100 100 100 100 100 100 100 100 100 100 100 100 100 100 100 100 100 100 100 100 100 100 100 100 100 100 100 100 100
100 100 100 100 40 95 100 100 100 100 80 99 100 100 100 100 100 100 100 100 100 100 100 100 100 100 100 100 100 100 100 100 100 100 100 100 100 100 100 100 100 100 100 100
100 100 96 69 8 16 100 100 100 100 100 99 100 100 100 100 100 100 100 100 100 100 100 100 100 100 100 100 100 100 100 100 100 100 100 100 100 100 100 100 100 100 100 100
100 100 91 84 6 62 100 100 100 100 100 100 100 100 100 100 100 100 100 100 100 100 100 100 100 100 100 100 100 100 100 100 100 100 100 100 100 100 100 100 100 100 100 100
99 100 100 100 100 100 100 100 100 98 100 100 100 100 100 100 100 100 100 100 100 100 100 100 100 100 100 100 100 100 100 100 100 100 100 100 100 100 100 100 100 100 100 100
100 94 100 100 100 100 100 100 100 100 100 100 100 100 100 100 100 100 100 100 100 100 100 100 100 100 100 100 100 100 100 100 100 100 100 100 100 100 100 100 100 100 100 100
100 100 100 100 100 100 100 100 100 100 100 100 100 100 100 100 100 100 100 100 100 100 100 100 100 100 100 100 100 100 100 100 100 100 100 100 100 100 100 100 100 100 100 100
100 100 100 100 100 100 100 100 100 100 100 100 100 100 100 100 100 100 100 100 100 100 100 100 100 100 100 100 100 100 100 100 100 100 100 100 100 100 100 100 100 100 100 100
100 100 100 100 100 100 100 100 100 100 100 100 100 100 100 100 100 100 100 100 100 100 100 100 100 100 100 100 100 100 100 100 100 100 100 100 100 100 100 100 100 100 100 100
98 100 96 100 100 100 100 100 100 100 100 100 100 100 100 100 100 100 100 100 100 100 100 100 100 100 100 100 100 100 100 100 100 100 100 100 100 100 100 100 100 100 100 100
100 96 100 100 100 100 100 100 100 100 100 100 100 100 100 100 100 100 100 100 100 100 100 100 100 100 100 100 100 100 100 100 100 100 100 100 100 100 100 100 100 100 100 100
97 100 100 100 100 100 100 100 100 100 100 100 100 100 100 100 100 100 100 100 100 100 100 100 100 100 100 100 100 100 100 100 100 100 100 100 100 100 100 100 100 100 100 100
100 100 93 100 100 100 100 100 100 100 100 100 100 100 100 100 100 100 100 100 100 100 100 100 100 100 100 100 100 100 100 100 100 100 100 100 100 100 100 100 100 100 100 100
97 95 100 98 100 100 100 100 100 95 96 71 86 95 95 94 98 100 93 97 100 100 100 100 100 100 100 100 100 100 100 100 100 100 100 100 100 100 100 100 100 100 100 100
100 100 100 100 100 100 100 92 92 47 5 5 5 5 5 56 70 82 73 76 92 82 99 98 93 72 100 100 97 100 100 100 100 100 100 100 100 100 100 100 100 100 100 100
100 100 100 84 93 96 100 91 14 35 49 5 5 5 5 5 32 97 100 94 87 96 97 18 51 10 12 11 25 97 100 100 100 100 100 100 100 100 100 62 100 100 100 100
100 96 100 100 100 99 78 75 41 5 7 5 5 5 6 5 5 11 92 97 94 67 96 86 26 5 5 13 44 100 100 100 100 100 100 100 100 100 100 100 100 100 100 100
100 100 100 100 100 94 77 63 5 5 5 5 5 5 98 97 48 56 3 60 100 2 100 100 62 4 20 94 99 100 100 100 100 100 100 100 100 100 100 100 100 100 100 100
100 100 95 80 39 55 73 63 19 22 24 43 82 82 71 82 85 80 100 93 97 43 100 100 14 5 31 100 100 100 100 100 100 100 100 100 100 100 100 100 100 100 100 100
100 77 59 84 54 76 98 92 91 94 86 56 5 5 50 100 100 100 100 94 95 44 98 72 22 5 53 100 100 100 100 100 100 100 100 100 100 100 100 100 100 100 100 100
76 85 100 99 99 100 92 100 81 100 91 100 100 100 84 100 98 100 99 100 78 82 100 98 20 22 99 100 100 100 100 100 100 100 100 100 100 100 100 100 100 100 100 100
99 100 100 92 82 39 39 8 58 98 99 100 100 100 100 100 100 100 100 100 100 97 100 100 100 98 100 100 100 100 100 100 100 100 100 100 100 100 100 100 100 100 100 100
100 91 100 74 84 73 42 5 13 99 97 100 100 100 100 100 100 97 100 100 100 100 100 100 100 100 100 100 100 100 100 100 100 100 100 100 100 100 100 100 100 100 100 100

GFSNGP_prec_cloud_096.txt.gz
Cloud_Cover
98 100 100 100 100 100 100 100 100 100 100 100 100 100 100 100 100 92 100 100 100 100 100 100 100 100 100 100 100 100 100 100 100 100 100 58 82 81 100 100 100 100 100 100
100 100 100 100 100 100 100 100 100 100 100 75 100 100 100 100 100 100 100 100 100 100 100 100 100 100 100 100 100 100 100 100 100 100 100 100 100 100 100 100 100 100 100 100
100 100 100 100 100 100 100 100 100 100 100 100 100 100 100 100 100 100 100 100 100 100 100 100 100 100 100 100 100 100 100 100 100 100 100 100 100 100 100 100 100 100 100 100
100 100 100 100 100 100 100 100 100 100 100 100 100 100 100 100 100 100 100 100 100 100 100 100 100 100 100 100 100 100 100 100 100 100 100 100 100 100 100 100 100 100 100 100
100 100 98 27 100 100 100 100 100 100 100 100 100 100 100 100 100 100 100 100 100 100 100 100 100 100 100 100 100 100 100 100 100 100 100 100 100 100 100 100 100 100 100 100
13 10 96 91 64 100 100 100 100 100 100 100 100 100 100 100 100 100 100 100 100 91 70 99 99 100 100 100 100 100 100 100 100 100 100 100 100 100 100 100 100 100 100 100
95 100 100 100 100 100 100 100 100 100 100 100 100 100 100 100 100 100 100 100 94 89 99 100 100 100 100 100 100 100 100 100 100 100 100 100 100 100 100 100 100 100 100 100
100 100 100 100 95 89 100 100 100 100 100 100 100 100 100 100 100 100 100 100 89 99 100 100 100 100 100 100 100 100 100 100 100 100 100 100 100 100 100 100 100 100 100 100
100 100 100 100 100 100 100 100 100 100 100 100 89 100 100 100 100 100 100 100 100 100 100 100 100 100 100 100 100 100 100 100 100 100 100 100 100 100 100 100 100 100 100 100
100 100 100 100 100 91 100 100 95 100 100 100 100 100 100 100 100 100 100 100 100 100 100 100 100 100 100 100 100 100 100 100 100 100 100 100 100 100 100 100 100 100 100 100
100 100 100 100 96 100 100 100 100 100 100 100 100 100 100 100 100 100 100 100 100 100 100 100 100 100 100 100 100 100 100 100 100 100 100 100 100 100 100 100 100 100 100 100
100 100 69 100 100 100 100 100 100 100 100 100 100 100 100 100 100 100 100 100 100 100 100 100 100 100 100 100 100 100 100 100 100 100 100 100 100 100 100 100 100 100 100 100
99 83 98 100 100 100 100 100 100 99 100 100 100 100 100 100 100 100 100 100 100 100 100 100 100 100 100 100 100 100 100 100 100 100 100 100 100 100 100 100 100 100 100 100
100 100 100 100 100 100 100 100 100 100 100 100 100 100 100 100 100 100 100 100 98 96 100 100 100 100 100 100 100 100 100 100 100 100 100 100 100 100 100 100 100 100 100 100
100 100 98 96 98 100 100 100 100 100 100 100 100 100 100 100 100 100 100 100 100 98 93 100 100 100 100 100 100 100 100 100 100 100 100 100 100 100 100 100 100 100 100 100
100 100 100 98 100 100 100 100 100 100 100 100 99 100 100 100 100 100 100 100 100 100 100 100 100 100 100 100 100 100 100 100 100 100 100 100 100 100 100 100 100 100 100 100
100 99 100 100 100 100 100 100 100 100 100 100 100 100 100 56 100 100 100 100 100 100 100 100 100 100 100 100 100 100 100 100 100 100 100 100 100 100 100 100 100 100 100 100
100 100 100 96 100 100 100 100 100 100 100 100 100 94 62 56 41 22 50 94 100 89 81 87 98 100 100 100 100 100 100 100 100 100 100 100 100 100 100 100 100 100 100 100
100 100 100 100 100 97 100 88 47 26 9 15 6 5 5 5 5 5 5 5 5 54 46 6 82 15 25 49 72 74 99 98 100 100 100 100 98 91 93 100 97 95 100 88
100 100 100 100 95 64 56 10 5 5 5 5 5 5 5 5 5 12 99 60 5 13 74 5 1 5 4 5 74 98 89 96 100 94 29 77 93 99 94 67 44 100 100 100
98 91 90 83 68 96 99 94 39 5 5 5 5 5 5 5 5 5 29 100 7 3 54 96 5 0 5 6 96 92 94 99 100 100 100 98 100 100 100 100 100 100 100 100
100 84 95 100 98 46 6 5 5 5 5 5 5 5 16 72 39 21 10 19 96 2 93 44 2 3 5 34 75 75 94 65 97 100 100 100 100 100 100 100 100 100 100 100
100 100 76 12 6 59 7 5 5 5 5 6 7 5 24 100 95 44 98 45 10 0 99 39 2 5 5 97 100 97 100 95 90 91 98 30 91 89 95 97 22 85 100 98
96 49 31 30 5 5 71 12 36 66 5 5 5 5 3 83 61 100 100 86 75 7 84 92 54 5 5 67 100 100 100 98 100 91 100 96 100 100 100 100 85 83 98 94
10 14 20 36 83 100 44 80 5 16 26 64 99 75 37 61 40 79 7 7 63 8 40 65 92 90 48 100 100 100 100 99 99 32 75 93 100 100 100 100 100 100 87 49
77 76 79 100 94 55 37 13 65 88 42 18 89 99 100 94 91 64 99 100 86 89 89 100 100 100 84 94 100 100 100 100 100 100 100 97 100 100 100 100 100 100 100 100
97 96 96 77 36 19 42 19 18 78 90 57 30 27 100 100 95 96 73 78 100 100 100 100 100 100 100 99 96 100 100 100 100 100 99 99 86 100 100 100 100 100 100 100

GFSNGP_prec_cloud_102.txt.gz
Cloud_Cover
77 100 100 99 97 100 100 100 100 100 100 100 100 100 100 100 100 100 100 100 100 100 100 100 100 100 100 100 100 100 100 100 100 100 100 100 100 100 100 99 100 90 98 100
100 100 100 100 100 100 100 100 100 100 100 100 100 100 100 100 100 100 100 100 100 100 100 100 100 100 100 100 100 100 100 100 100 100 100 100 100 100 100 100 100 100 100 100
100 100 100 83 100 100 100 100 100 100 100 100 92 100 100 100 100 100 100 100 100 100 100 100 100 100 100 100 100 100 100 100 100 100 100 100 100 100 100 100 100 100 100 100
100 100 100 100 100 100 100 100 100 100 100 100 100 100 100 100 100 100 100 100 100 100 100 100 100 100 100 100 100 100 100 100 100 100 100 100 100 100 100 100 100 100 100 100
100 100 100 100 100 100 100 100 100 100 100 100 100 100 100 100 100 100 100 100 100 100 100 100 100 100 100 100 100 100 100 100 100 100 100 100 100 100 100 100 100 100 100 100
100 100 100 100 100 100 100 100 100 100 100 100 100 100 100 100 100 100 100 100 100 100 100 100 100 100 100 100 100 100 100 100 100 100 100 100 100 100 100 100 100 100 100 100
100 100 100 100 100 100 100 100 100 100 100 100 100 100 100 100 98 98 100 100 100 98 98 100 100 100 100 99 100 100 100 100 100 100 100 100 100 100 100 100 100 100 100 100
100 100 100 100 100 100 100 100 100 100 86 99 100 100 100 100 100 100 100 100 96 100 98 100 100 89 90 100 100 100 100 100 100 100 100 100 100 100 100 100 100 100 100 100
100 100 100 100 100 100 94 100 100 92 86 100 92 100 100 100 100 100 100 100 100 100 100 100 94 100 83 100 94 80 75 100 100 100 100 100 100 100 100 100 100 100 100 100
100 100 100 100 100 100 100 100 100 98 67 76 98 100 100 100 100 100 100 100 100 100 100 100 100 93 100 96 97 95 84 100 100 100 100 100 100 100 100 100 100 100 100 100
100 100 100 100 100 100 100 90 99 99 75 86 77 97 100 100 100 100 99 100 100 100 100 100 97 100 100 100 100 80 100 100 100 100 100 100 100 100 100 100 100 100 100 100
92 97 100 100 100 100 90 100 100 78 89 91 93 100 100 100 100 100 100 100 94 80 96 99 98 100 100 100 100 100 100 100 100 100 100 100 100 100 100 100 100 100 100 100
100 100 99 84 100 100 96 100 71 63 83 88 100 100 100 100 100 100 100 100 100 100 100 100 99 100 100 100 100 100 100 100 100 100 100 100 100 100 100 100 100 100 100 100
100 100 100 100 99 80 99 96 82 93 100 100 100 100 100 100 100 100 100 100 100 100 95 100 100 100 100 100 100 100 100 100 100 100 100 100 100 100 100 100 100 100 100 100
100 100 100 100 70 80 73 76 100 98 100 100 100 98 96 98 100 96 100 100 100 100 100 100 99 100 100 100 100 100 100 100 100 100 100 100 100 100 100 100 100 100 100 100
87 76 77 76 85 26 93 100 99 99 100 100 100 100 100 98 98 92 64 13 10 38 64 100 98 99 99 94 99 95 94 100 100 100 100 100 100 100 100 100 100 100 100 100
77 100 96 99 100 100 99 100 100 100 100 100 100 100 100 100 100 100 100 73 14 6 5 5 8 25 24 9 78 58 36 38 64 99 100 100 100 100 100 100 100 100 100 100
100 100 100 100 100 100 100 94 100 71 17 21 14 71 72 55 59 53 17 51 5 5 5 5 5 5 5 5 5 5 11 5 10 81 5 6 94 100 98 98 99 100 97 100
100 100 100 100 99 63 66 33 7 5 5 5 5 15 41 58 63 100 37 5 21 5 5 5 2 5 5 5 5 5 21 41 30 24 34 70 45 39 76 90 87 90 70 97
100 100 100 100 8 6 6 80 12 14 26 15 56 26 5 9 54 26 59 5 5 9 5 5 5 5 5 5 52 5 10 58 45 55 69 92 80 76 87 90 100 100 90 83
100 97 72 84 54 45 11 13 6 5 49 5 5 28 49 47 62 39 80 46 5 5 5 4 3 5 5 25 31 68 31 51 62 65 78 86 100 100 100 100 100 100 100 94
100 100 100 68 30 87 68 10 6 38 44 13 62 92 94 42 77 5 5 5 5 5 5 5 5 14 4 42 42 18 31 50 58 62 16 35 73 87 96 79 88 100 94 100
100 91 38 58 79 52 58 50 48 59 10 5 27 32 5 5 44 67 32 5 5 5 9 5 5 5 5 10 80 65 26 64 61 24 48 88 100 84 95 28 33 99 32 20
33 76 51 37 32 52 90 36 16 25 17 11 5 5 33 32 95 18 12 24 7 26 16 9 18 5 5 5 52 100 56 53 91 5 36 47 83 65 81 97 94 72 99 100
39 20 45 80 99 78 64 54 43 51 14 62 93 84 100 100 100 99 99 28 38 20 5 11 71 19 5 16 51 100 100 73 70 95 77 91 93 54 77 79 94 99 99 100
19 82 100 100 82 52 66 56 74 78 97 100 97 90 90 100 100 100 99 90 26 61 88 100 99 71 81 100 84 68 32 41 50 82 75 95 94 80 86 45 82 93 73 75
100 98 87 61 65 100 98 100 100 100 100 80 69 48 69 97 87 97 79 76 91 96 89 92 98 100 96 99 99 100 100 100 96 94 96 87 78 20 22 76 100 100 90 92

GFSNGP_prec_cloud_108.txt.gz
Cloud_Cover
100 100 100 100 100 100 100 100 100 100 100 100 100 100 100 100 100 100 100 100 100 100 100 100 100 100 100 100 100 100 100 100 100 100 100 100 100 100 100 100 100 100 100 100
100 100 100 100 100 100 100 100 100 100 100 100 100 100 100 100 100 100 100 100 100 100 100 100 100 100 100 100 100 100 100 100 100 100 100 100 100 100 100 100 100 100 100 100
100 100 100 100 100 100 100 100 100 100 100 100 100 100 100 100 100 100 100 100 100 100 100 100 100 100 100 100 100 100 100 100 100 100 100 100 100 100 100 100 100 100 100 100
100 100 100 100 100 100 100 100 100 100 100 100 100 100 100 100 100 100 100 100 100 100 100 100 100 100 100 100 100 100 100 100 100 100 100 100 100 100 100 100 100 100 100 100
100 100 100 100 100 100 100 100 100 100 100 100 100 100 100 100 100 100 100 100 100 100 100 100 100 100 100 100 100 100 100 100 100 100 100 100 100 100 100 100 100 100 100 100
100 100 100 100 100 100 100 100 100 100 100 100 100 100 100 100 100 100 100 100 100 100 100 100 100 100 100 100 100 100 100 100 100 100 100 100 100 100 100 100 100 100 100 100
100 100 100 100 100 100 100 100 100 100 100 100 100 100 96 100 100 100 100 100 98 99 100 100 100 100 100 100 100 100 100 100 100 100 100 100 100 100 100 100 100 100 100 100
100 100 100 100 100 100 100 100 100 100 100 100 100 97 98 100 100 100 100 100 94 100 100 100 100 100 100 100 100 100 100 100 100 100 100 100 100 100 100 100 100 100 100 100
100 100 100 100 100 100 100 100 100 100 100 81 70 85 93 100 100 84 98 82 80 92 99 100 100 100 100 100 100 100 100 100 100 100 100 100 100 100 100 100 100 100 100 100
99 100 100 100 100 100 100 100 100 100 100 97 89 88 83 16 76 48 72 86 90 95 98 100 100 100 100 100 100 100 100 100 100 100 100 100 100 100 100 100 100 100 87 99
100 100 100 100 99 100 100 100 100 100 100 97 94 61 72 10 74 82 28 6 45 76 83 100 39 72 64 100 97 91 96 100 100 100 100 100 100 100 100 100 100 100 100 99
100 100 100 100 96 60 100 98 100 76 91 76 36 96 100 10 32 81 100 99 100 100 97 10 35 16 7 13 48 90 100 56 58 38 48 49 77 100 92 100 100 100 100 99
100 100 74 94 98 78 86 96 69 62 12 75 63 15 5 6 44 99 99 28 13 42 37 27 14 38 62 40 6 5 79 100 56 5 5 51 66 76 59 6 13 95 97 100
100 100 100 100 93 99 63 92 78 92 56 66 20 5 5 26 72 76 100 51 96 80 8 5 34 82 74 32 5 6 15 38 6 5 5 11 60 71 68 80 42 61 29 89
100 100 100 100 100 100 84 60 6 8 5 5 89 6 5 7 100 100 100 95 73 19 5 5 33 75 67 5 14 52 10 76 70 45 5 5 5 5 34 31 62 62 100 100
100 100 100 100 100 93 97 17 28 33 5 5 100 100 100 26 96 98 76 45 22 8 5 39 58 69 56 18 5 18 54 23 24 66 69 43 27 33 5 18 62 81 97 94
100 100 100 100 100 93 63 16 5 5 5 58 41 83 77 51 26 15 24 5 12 5 5 13 99 16 5 6 58 67 64 53 48 5 67 86 82 71 63 55 65 69 81 79
100 100 100 100 84 72 12 5 5 5 58 74 50 69 57 5 5 5 5 5 5 5 5 5 38 7 5 12 5 41 9 54 69 96 69 78 88 73 60 50 46 56 56 49
89 98 100 100 61 22 5 18 44 82 66 8 20 63 90 99 100 100 64 5 14 14 5 5 5 5 5 16 16 5 5 26 28 62 69 54 68 66 93 100 97 90 57 8
100 100 97 90 97 100 78 65 100 64 16 5 47 28 7 12 76 71 88 13 11 5 24 5 5 5 5 6 63 5 7 15 5 31 58 74 99 100 96 79 84 90 100 96
100 100 100 100 98 62 69 95 50 11 72 54 43 10 34 73 76 70 60 59 5 5 5 4 5 5 5 28 31 66 59 90 39 32 86 100 100 100 92 96 100 100 94 90
100 100 99 97 100 98 33 7 6 48 63 58 100 98 86 40 80 38 5 8 5 5 5 32 5 5 10 16 44 94 49 31 66 79 53 72 99 100 98 100 92 100 100 100
100 100 97 93 16 30 66 40 26 47 57 62 64 72 32 7 52 69 5 6 5 5 5 8 40 50 52 10 5 92 100 100 100 100 94 90 100 100 100 100 100 100 100 100
100 99 99 16 5 28 41 40 56 40 53 67 31 8 5 5 29 43 16 71 23 27 5 28 66 62 68 71 70 65 92 100 100 100 100 98 100 100 100 100 100 100 100 100
46 18 5 31 27 8 42 32 44 58 46 10 6 8 11 36 57 25 76 74 100 89 46 32 74 89 99 98 96 94 100 98 83 100 100 100 100 100 100 100 100 100 100 100
64 27 21 53 8 5 13 32 30 22 54 76 71 92 61 65 70 86 71 87 78 80 78 81 87 92 98 83 77 94 100 100 100 100 94 100 100 100 100 100 100 100 89 88
51 8 9 56 50 8 46 58 92 83 89 84 57 44 5 24 30 60 97 99 100 100 100 100 62 59 73 90 80 69 79 93 100 100 100 100 100 100 98 100 100 100 100 100

GFSNGP_prec_cloud_111.txt.gz
Cloud_Cover
15 38 100 97 94 100 100 100 100 100 100 100 100 100 100 100 100 100 100 100 100 100 100 100 100 100 100 100 100 100 100 100 100 100 100 100 100 100 100 100 100 100 100 100
48 29 100 100 100 100 100 100 100 100 100 100 100 100 100 100 100 100 100 100 100 100 100 100 100 100 100 100 100 100 100 100 100 100 100 100 100 100 100 100 100 100 100 100
78 100 100 100 100 100 100 100 100 100 100 100 100 100 100 100 100 100 100 100 100 100 100 100 100 100 100 100 100 100 100 100 100 100 100 100 100 100 100 100 100 100 100 100
100 100 100 100 100 100 100 100 100 100 100 100 100 100 100 100 100 100 100 100 100 100 100 100 100 100 100 100 100 100 100 100 100 100 100 100 100 100 100 100 100 100 100 100
100 100 100 100 100 100 100 100 100 100 100 100 100 100 100 100 100 100 100 100 100 100 100 100 100 100 100 100 100 100 100 100 100 100 100 100 100 100 100 100 100 100 100 100
100 100 100 100 100 100 100 100 100 100 100 100 100 100 100 100 100 100 100 100 100 100 99 100 100 100 100 100 100 100 100 100 100 100 100 100 100 100 100 100 100 100 100 100
100 100 100 100 100 100 100 100 100 100 100 100 100 100 100 100 100 100 100 100 100 100 100 100 100 100 100 100 100 100 100 100 100 100 100 100 100 100 100 100 100 100 100 100
100 100 100 100 100 100 100 100 100 100 100 100 100 100 100 100 100 100 100 100 100 100 100 100 100 100 100 100 100 100 100 100 100 100 100 100 100 100 100 100 100 100 100 100
100 100 100 100 100 100 100 100 100 100 100 100 100 100 100 100 100 100 100 100 100 100 46 99 98 100 100 100 100 100 100 100 100 100 100 100 100 100 100 100 100 100 100 100
100 100 100 100 100 100 100 100 100 100 100 100 100 100 100 86 94 94 100 100 94 61 100 52 100 100 100 100 100 100 100 100 100 100 100 100 100 100 100 100 100 100 100 100
100 100 100 100 100 100 100 100 100 100 100 100 100 61 34 19 23 51 47 94 100 100 100 91 69 82 100 100 100 100 100 100 100 100 100 100 100 100 100 100 100 100 100 100
98 64 100 100 100 100 100 100 100 100 100 100 100 14 87 5 5 5 5 7 45 72 61 97 98 94 76 47 29 65 82 100 100 100 100 100 89 53 100 100 100 100 100 100
100 100 83 100 100 100 96 100 99 93 86 84 32 47 17 67 86 97 99 33 62 87 99 98 69 36 93 73 25 37 15 74 94 100 100 100 100 100 100 100 100 100 100 100
100 100 100 100 98 93 87 93 72 67 79 28 46 60 73 100 100 100 100 100 100 100 100 100 68 89 100 99 12 87 90 35 5 6 9 9 5 15 16 11 5 18 56 48
100 100 100 100 100 100 90 81 98 58 62 89 84 99 98 100 100 100 100 100 100 100 100 96 60 92 99 67 72 66 15 69 96 75 42 5 35 28 17 5 54 8 5 5
100 100 100 100 100 100 100 100 63 5 5 97 100 100 100 100 100 100 87 24 30 31 14 86 84 96 65 41 70 64 74 10 53 100 100 100 100 92 84 82 82 82 65 58
100 100 100 100 100 100 100 100 100 58 6 5 5 68 98 99 99 93 62 36 5 5 28 95 95 18 5 5 70 93 100 100 64 100 100 100 100 100 100 100 100 100 100 31
100 100 100 100 100 100 100 100 100 76 42 88 31 34 31 25 9 5 5 5 5 4 5 5 32 6 5 13 5 5 9 65 93 100 100 100 96 100 100 100 100 100 100 91
100 100 100 100 100 100 100 100 85 94 80 6 11 6 15 14 35 5 5 5 5 5 5 5 3 23 26 19 4 5 5 10 55 57 64 37 96 100 100 100 100 100 100 100
100 100 100 100 100 100 98 81 80 98 100 67 52 66 67 26 64 38 71 12 7 5 5 5 1 1 6 5 21 5 5 5 9 66 64 56 26 83 100 93 89 100 100 100
97 100 100 100 100 99 100 98 100 100 75 45 5 10 28 12 60 36 27 5 5 5 5 5 5 5 0 1 4 5 5 7 64 79 100 92 61 50 92 100 100 100 100 100
100 100 100 100 100 95 100 100 100 61 16 5 33 49 79 56 84 16 5 5 5 5 5 4 2 5 11 14 5 23 30 58 44 69 92 81 91 100 100 100 100 100 100 100
100 100 100 100 100 100 100 100 91 29 5 14 16 55 36 5 5 5 5 5 5 5 5 5 5 16 50 75 92 100 100 100 100 100 100 100 98 98 100 100 100 100 98 100
100 100 100 100 100 100 100 90 60 5 13 5 5 5 5 24 5 46 61 70 95 99 70 58 86 96 100 100 100 100 100 100 100 100 100 99 100 100 100 100 99 89 100 91
100 100 100 98 61 72 74 39 5 5 5 5 5 30 85 78 61 42 83 99 99 92 100 94 97 78 96 97 100 100 100 100 100 100 100 100 100 100 100 100 100 100 100 100
100 100 90 37 56 22 18 5 5 6 5 5 56 80 95 65 54 66 95 98 99 89 99 76 6 9 77 85 81 92 99 100 100 100 100 100 100 100 100 100 100 100 100 100
100 100 79 27 5 5 11 5 5 49 67 71 70 37 6 5 27 47 70 100 98 92 44 55 89 72 66 90 99 100 100 100 100 100 100 100 100 100 100 100 100 100 100 100

GFSNGP_prec_cloud_114.txt.gz
Cloud_Cover
5 5 78 86 99 97 100 100 100 100 100 100 100 100 100 100 100 100 100 100 100 100 100 100 100 100 100 100 100 100 100 100 100 100 100 100 100 100 100 100 100 100 100 100
100 48 89 100 100 100 100 100 100 100 100 100 100 100 100 100 100 100 100 100 100 100 100 100 100 100 100 100 100 100 100 100 100 100 100 100 100 100 100 100 100 100 100 100
93 88 100 100 100 100 100 100 100 100 100 100 100 100 100 100 100 100 100 100 100 100 100 100 100 100 100 100 100 100 100 100 100 100 100 100 100 100 100 100 100 100 100 100
98 95 100 100 100 100 100 100 100 100 100 100 100 100 100 100 100 100 100 100 100 100 100 100 100 100 100 99 100 100 100 100 100 100 100 100 100 100 100 100 100 100 100 100
100 98 100 100 100 100 100 100 100 100 100 100 100 100 100 100 100 100 100 100 100 100 100 100 100 100 100 100 100 100 100 100 100 100 100 100 100 100 100 100 100 100 100 100
99 100 100 100 100 100 100 100 100 100 100 100 100 100 100 100 100 100 100 100 100 100 100 99 100 100 100 100 100 100 100 100 100 100 100 100 100 100 100 100 100 100 100 100
100 100 100 100 100 100 100 100 100 100 100 100 100 100 100 100 100 99 100 100 100 100 100 100 100 100 100 100 100 100 100 100 100 100 100 100 100 100 100 100 100 100 100 100
100 100 100 100 100 100 100 100 100 100 100 100 100 100 100 100 100 100 93 99 96 100 68 100 96 100 100 100 100 100 100 100 100 100 100 100 100 100 100 100 100 99 100 100
100 100 100 100 100 100 100 100 81 82 99 97 100 100 100 100 100 100 100 100 91 97 89 100 100 100 100 100 100 100 100 100 100 100 100 100 100 100 100 100 100 100 100 100
99 100 100 100 100 100 100 100 100 100 100 100 97 100 100 100 99 100 100 100 100 100 98 98 97 100 100 100 100 100 100 100 100 100 100 100 100 100 100 100 100 100 100 100
100 100 100 100 100 100 100 100 100 100 100 100 100 100 99 63 60 33 76 100 98 100 100 100 74 73 79 100 100 100 99 100 100 100 100 100 100 100 100 100 100 100 100 100
100 99 100 100 100 100 89 100 100 100 100 100 100 100 45 5 5 5 5 5 20 43 92 90 100 99 100 96 55 100 100 100 100 100 100 100 100 100 100 100 100 100 100 100
100 100 100 100 100 100 100 100 100 100 100 100 100 85 18 13 12 18 5 52 85 87 100 100 99 82 8 10 48 100 46 100 99 100 97 100 100 100 100 100 100 100 100 100
100 99 100 100 100 100 100 99 100 97 100 99 92 92 74 64 54 52 99 100 100 100 100 100 100 76 98 74 45 72 42 32 57 96 75 81 82 92 94 100 100 100 100 100
100 100 100 100 100 100 100 94 98 35 18 39 24 9 6 7 78 95 100 100 100 44 34 9 5 5 5 5 14 80 14 50 100 100 100 100 100 98 86 82 75 83 79 58
100 100 100 100 100 100 100 96 53 50 51 41 5 23 94 100 100 100 100 100 100 100 11 91 6 56 5 35 60 72 96 29 47 93 95 98 98 99 100 100 100 100 100 95
100 100 100 100 100 100 100 88 43 100 100 100 100 11 5 73 100 100 100 98 71 19 49 86 99 12 88 58 84 68 85 98 23 100 100 100 100 100 100 100 100 100 100 89
100 100 100 100 100 100 94 92 100 100 100 100 92 36 5 21 48 8 5 5 5 5 5 5 78 86 45 42 75 58 59 67 71 76 98 100 100 100 100 100 100 100 100 100
100 100 100 100 100 100 100 100 100 100 100 99 5 30 20 40 7 5 5 26 22 36 5 5 5 59 74 5 16 62 90 100 90 94 99 89 100 100 100 100 100 100 100 100
100 100 100 100 100 100 100 100 100 100 98 26 66 100 68 52 22 45 26 79 9 5 5 5 12 5 9 25 18 96 100 100 100 100 100 100 100 100 100 100 100 100 100 100
100 100 100 100 100 100 100 100 100 100 71 13 100 70 24 7 36 38 74 96 34 5 5 5 31 80 88 46 73 98 100 100 100 100 100 100 100 100 100 100 100 100 100 100
100 100 100 100 100 100 100 100 100 100 76 100 53 6 5 5 25 54 47 64 96 5 63 100 100 42 35 19 100 100 100 100 100 100 100 100 100 100 100 100 100 100 100 100
100 100 100 100 100 100 100 100 100 100 100 49 10 5 5 67 96 100 99 63 85 81 88 100 66 5 37 98 100 100 100 100 100 100 100 100 100 100 100 100 100 100 100 100
100 100 100 100 100 100 100 100 100 100 60 68 27 5 11 83 95 99 100 94 87 100 100 97 94 94 99 100 100 100 100 100 100 100 100 100 100 100 100 100 100 100 100 100
100 100 100 100 100 100 100 100 99 93 74 43 5 5 27 74 100 100 100 100 99 94 100 96 62 27 98 100 100 100 100 100 100 100 100 100 100 100 100 100 100 100 100 100
100 100 100 100 100 100 97 49 32 60 19 69 95 100 100 96 98 76 100 86 100 90 100 100 100 100 100 100 100 100 100 100 100 100 100 100 100 100 100 100 100 100 100 100
100 100 100 100 100 77 49 69 15 52 56 98 100 100 99 100 89 84 59 100 100 100 100 100 100 100 100 100 100 100 100 100 100 100 100 100 100 100 100 100 100 100 100 100